Find Starlink 30853

NORAD ID: 58236 Int'l Des: 2023-171 Owner: SPXS Country: US Constellation: starlink operational
LEOCIRCULAR

現在のビュー

3D地球を読み込み中...

About Starlink 30853

Starlink 30853 (NORAD 58236) is a starlink constellation satellite (v2 mini) launched Nov 8, 2023 by SPXS of US. It operates in LEO, CIRCULAR orbit with a mass of 730.00 kg.

次回通過

Passes for default location (London). Set your location on the main map for personalized predictions.

高度履歴

Loading altitude history...

軌道要素

1 58236U 23171G 26263.68849616 .00001294 00000-0 56522-4 0 9995
2 58236 43.0022 264.2787 0001306 267.6645 92.4057 15.27584070159550
Epoch: Sep 20, 2026 • Age: 12 hours

現在のステータス

高度 485.0 km
遠地点 / 近地点 N/A
速度 7.62 km/s
衛星直下点 -12.63°S, 172.47°E
打ち上げ日 Nov 8, 2023
運用期間 2.8 years
タイプ internet

技術仕様

分類 Payload
質量 730.00 kg
乾燥質量 700.00 kg
長さ 0.30 m
スパン 29.00 m
形状 ? Box + pan
製造者 SPXS
バスタイプ Starlink V2M
フェーズステータス In Orbit
所有者/国 SPXS/US

Most Searched